Location: Ch�risy
(50.2331°N, 2.9131°E)
Time: 03:18:50
(UTC+00:00)

Tsikada Rocket - Pass Details

Date: 17 January 2021
Orbit: 957 x 1010 km, 82.9° (Epoch: 24 February)

Event Time Altitude Azimuth Distance (km) Brightness Sun altitude
Rises 17:16:52 0° 187° (S) 3,711 7.4 -9.3°
Reaches altitude 10° 17:19:23 10° 187° (S) 2,759 6.8 -9.7°
Maximum altitude 17:25:45 89° 96° (E) 996 4.1 -10.6°
Drops below altitude 10° 17:32:03 10° 10° (N) 2,741 6.1 -11.6°
Sets 17:34:33 0° 10° (N) 3,685 6.7 -12.0°
